Location: Sabalos
(43.2860°N, 0.1414°E)
Time: 08:36:30
(UTC+00:00)

CZ-2C R/B - Pass Details

Date: 05 July 2020
Orbit: 784 x 871 km, 98.3° (Epoch: 14 August)

Event Time Altitude Azimuth Distance (km) Brightness Sun altitude
Rises 20:47:53 0° 6° (N) 3,404 6.5 -10.1°
Reaches altitude 10° 20:50:25 10° 358° (N) 2,451 5.8 -10.4°
Maximum altitude 20:55:22 38° 292° (WNW) 1,231 4.2 -11.1°
Drops below altitude 10° 21:00:13 10° 226° (SW) 2,384 5.0 -11.7°
Sets 21:02:39 0° 218° (SW) 3,299 5.7 -12.0°
